Home > Weather > Osaka > Past weeks

Flag for Japan Past Weather in Osaka, Japan — Yesterday and Last 2 Weeks

Now
82 °F

Rain showers. Partly cloudy.


Feels Like: 91 °F
Forecast: 75 / 95 °F
Wind: 7 mph from Northwest

Location: Kansai International Airport

Current Time: Aug 25, 2016 at 3:17:31 AM

Latest Report: Aug 25, 2016 at 2:30 AM


Visibility: N/A

Pressure: 29.71 "Hg

Humidity: 84%

Dew Point: 77 °F

Location of OsakaLocation

Past Weather in Osaka — Graph

°F

Osaka Temperature Yesterday

Maximum temperature yesterday: 93 °F (at 12:00 PM)
Minimum temperature yesterday: 81 °F (at 12:30 AM)
Average temperature yesterday: 85 °F

High & Low Weather Summary for the Past Weeks

 TemperatureHumidityPressure
High95 °F (Aug 18, 2:00 PM)89% (Aug 13, 3:30 AM)29.83 "Hg (Aug 13, 3:30 AM)
Low77 °F (Aug 11, 4:00 AM)29% (Aug 11, 4:30 PM)29.47 "Hg (Aug 16, 3:00 PM)
Average86 °F67%29.66 "Hg
* Reported Aug 10 2:00 AM — Aug 25 2:00 AM, Osaka, Weather by CustomWeather, © 2016

Note: Actual official high and low records may vary slightly from our data, if they occured in-between our weather recording intervals... More about our weather records

Advertising

Osaka Weather History for the Previous 24 Hours

Scroll right to see more
 ConditionsComfort  
Time TempWeatherWind HumidityBarometerVisibility
2:00 AM
Thu, Aug 25
82 °FLots of rain. Partly cloudy.6 mph84%29.71 "HgN/A
1:47 AM82 °FLots of rain. Partly cloudy.5 mph84%29.71 "HgN/A
1:30 AM82 °FScattered showers. Partly cloudy.3 mph84%29.71 "HgN/A
1:00 AM82 °FSprinkles. Partly cloudy.3 mph84%29.71 "HgN/A
12:48 AM84 °FSprinkles. Partly cloudy.2 mph74%29.71 "HgN/A
12:30 AM84 °FRain showers. Partly cloudy.2 mph74%29.71 "HgN/A
12:00 AM84 °FPartly cloudy.3 mph74%29.74 "HgN/A
11:30 PM
Wed, Aug 24
84 °FPartly cloudy.3 mph79%29.74 "HgN/A
11:00 PM84 °FPassing clouds.5 mph79%29.74 "HgN/A
10:30 PM84 °FPassing clouds.5 mph79%29.74 "HgN/A
10:00 PM84 °FPassing clouds.3 mph79%29.74 "HgN/A
9:30 PM82 °FPartly cloudy.6 mph84%29.74 "HgN/A
9:00 PM82 °FPartly cloudy.5 mph89%29.74 "HgN/A
8:30 PM82 °FPartly cloudy.8 mph84%29.74 "HgN/A
8:00 PM82 °FPassing clouds.9 mph84%29.71 "HgN/A
7:30 PM84 °FPassing clouds.10 mph79%29.71 "HgN/A
7:00 PM84 °FPartly cloudy.12 mph79%29.68 "HgN/A
6:30 PM84 °FPartly sunny.10 mph74%29.71 "HgN/A
6:00 PM86 °FPartly sunny.13 mph75%29.68 "HgN/A
5:30 PM86 °FPartly sunny.12 mph70%29.68 "HgN/A
5:00 PM88 °FPartly sunny.12 mph70%29.68 "HgN/A
4:30 PM86 °FPartly sunny.14 mph70%29.68 "HgN/A
4:00 PM90 °FPartly sunny.16 mph59%29.68 "HgN/A
3:30 PM88 °FBroken clouds.16 mph62%29.65 "HgN/A
3:00 PM91 °FPartly sunny.14 mph52%29.65 "HgN/A
2:30 PM93 °FPartly sunny.10 mph47%29.65 "HgN/A
2:00 PM91 °FPartly sunny.10 mph49%29.68 "HgN/A
1:30 PM91 °FScattered clouds.12 mph49%29.68 "HgN/A
1:00 PM93 °FScattered clouds.10 mph47%29.68 "HgN/A
12:30 PM91 °FScattered clouds.12 mph49%29.68 "HgN/A
12:00 PM93 °FScattered clouds.12 mph47%29.68 "HgN/A
11:30 AM88 °FPassing clouds.5 mph66%29.71 "HgN/A
11:00 AM90 °FPassing clouds.5 mph55%29.71 "HgN/A
10:30 AM90 °FPassing clouds.6 mph59%29.71 "HgN/A
10:00 AM88 °FPassing clouds.6 mph59%29.71 "HgN/A
9:30 AM88 °FPassing clouds.8 mph59%29.71 "HgN/A
9:00 AM86 °FScattered clouds.6 mph59%29.71 "HgN/A
8:30 AM84 °FPartly sunny.7 mph66%29.71 "HgN/A
8:00 AM82 °FPartly sunny.5 mph70%29.71 "HgN/A
7:30 AM81 °FPartly sunny.3 mph74%29.71 "HgN/A
7:00 AM81 °FPartly sunny.6 mph79%29.71 "HgN/A
6:30 AM81 °FPartly sunny.6 mph74%29.71 "HgN/A
6:00 AM81 °FPartly sunny.5 mph74%29.71 "HgN/A
5:30 AM81 °FPartly sunny.5 mph74%29.71 "HgN/A
5:00 AM81 °FPassing clouds.6 mph74%29.68 "HgN/A
4:30 AM81 °FPassing clouds.6 mph74%29.68 "HgN/A
4:00 AM81 °FPassing clouds.7 mph74%29.68 "HgN/A
3:30 AM81 °FPassing clouds.7 mph70%29.68 "HgN/A
3:00 AM81 °FPassing clouds.7 mph70%29.68 "HgN/A
Weather by CustomWeather, © 2016

See weather overviewHow to use our weather pages